WC1Z Weather Reports


Display with metric or nautical units.
time (UTC)temp
F
wind
direction
speed
MPH
gust
MPH
rain 1hr
in
rain 24hr
in
rain mn
in
humidity
%
barometer
mb
20260831084701 75 360 0.0 0.0 0.00 0.00 0.00 81 1015.6
20260831084200 76 360 0.0 0.0 0.00 0.00 0.00 81 1015.6
20260831083701 76 360 0.0 0.0 0.00 0.00 0.00 79 1015.6
20260831083304 76 150 0.0 1.0 0.00 0.00 0.00 79 1015.6
20260831082701 76 360 0.0 0.0 0.00 0.00 0.00 78 1015.6
20260831082200 76 360 0.0 0.0 0.00 0.00 0.00 78 1015.6
20260831081701 76 84 0.0 1.0 0.00 0.00 0.00 79 1015.6
20260831081200 76 203 0.0 1.0 0.00 0.00 0.00 79 1015.6
20260831080705 76 360 0.0 0.0 0.00 0.00 0.00 79 1015.6
20260831080200 77 242 0.0 0.0 0.00 0.00 0.00 78 1015.7
20260831075700 77 360 0.0 0.0 0.00 0.00 0.00 78 1015.7
20260831075200 78 360 0.0 0.0 0.00 0.00 0.00 76 1015.7
20260831074700 78 360 0.0 0.0 0.00 0.00 0.00 75 1015.7
20260831074200 78 360 0.0 0.0 0.00 0.00 0.00 75 1015.7
20260831073701 78 360 0.0 0.0 0.00 0.00 0.00 74 1015.7
20260831073200 79 141 0.0 0.0 0.00 0.00 0.00 73 1015.7
20260831072701 78 100 1.0 1.0 0.00 0.00 0.00 73 1015.7
20260831072202 78 360 0.0 0.0 0.00 0.00 0.00 73 1015.7
20260831071700 78 360 0.0 0.0 0.00 0.00 0.00 73 1015.8
20260831071200 78 119 0.0 1.0 0.00 0.00 0.00 73 1015.8
20260831070700 78 360 0.0 0.0 0.00 0.00 0.00 74 1015.8
20260831070201 78 360 0.0 0.0 0.00 0.00 0.00 74 1015.8
20260831065701 78 360 0.0 0.0 0.00 0.00 0.00 74 1015.8
20260831065201 78 360 0.0 0.0 0.00 0.00 0.00 75 1015.8
20260831064701 77 360 0.0 0.0 0.00 0.00 0.00 76 1015.8
20260831064201 78 360 0.0 0.0 0.00 0.00 0.00 77 1015.8
20260831063700 78 360 0.0 0.0 0.00 0.00 0.00 76 1015.8
20260831063201 78 360 0.0 0.0 0.00 0.00 0.00 76 1015.8
20260831062700 79 360 0.0 0.0 0.00 0.00 0.00 76 1015.9
20260831062200 79 360 0.0 0.0 0.00 0.00 0.00 75 1016.0
20260831061701 80 360 0.0 0.0 0.00 0.00 0.00 74 1016.0
20260831061201 80 360 0.0 0.0 0.00 0.00 0.00 73 1015.9
20260831060700 81 360 0.0 0.0 0.00 0.00 0.00 71 1015.9
20260831060201 81 360 0.0 0.0 0.00 0.00 0.00 70 1015.9
20260831055701 81 360 0.0 0.0 0.00 0.00 0.00 70 1015.8
20260831055201 81 105 0.0 0.0 0.00 0.00 0.00 70 1015.9
20260831054701 80 164 0.0 0.0 0.00 0.00 0.00 70 1016.0
20260831054200 80 360 0.0 0.0 0.00 0.00 0.00 71 1016.0
20260831053700 80 211 0.0 1.0 0.00 0.00 0.00 73 1016.1
20260831053201 79 360 0.0 0.0 0.00 0.00 0.00 74 1016.0
20260831052701 79 146 2.0 3.0 0.00 0.00 0.00 73 1016.0
20260831052200 78 92 2.0 2.0 0.00 0.00 0.00 76 1015.9
20260831051700 77 360 0.0 0.0 0.00 0.00 0.00 78 1015.8
20260831051201 78 240 3.0 4.0 0.00 0.00 0.00 78 1015.8
20260831050700 78 360 0.0 0.0 0.00 0.00 0.00 75 1015.7
20260831050202 79 360 0.0 0.0 0.00 0.00 0.00 75 1015.6
20260831045700 79 360 0.0 0.0 0.00 0.00 0.00 75 1015.6
20260831045200 79 360 0.0 0.0 0.00 0.00 0.00 74 1015.6
20260831044700 80 360 0.0 0.0 0.00 0.00 0.00 73 1015.6
20260831044200 80 360 0.0 0.0 0.00 0.00 0.00 73 1015.6
20260831043700 80 360 0.0 0.0 0.00 0.00 0.00 73 1015.5
20260831043200 80 360 0.0 0.0 0.00 0.00 0.00 73 1015.5
20260831042701 81 360 0.0 0.0 0.00 0.00 0.00 72 1015.5
20260831042206 81 360 0.0 0.0 0.00 0.00 0.00 70 1015.5
20260831041701 82 360 0.0 0.0 0.00 0.00 0.00 69 1015.4
20260831041200 82 360 0.0 0.0 0.00 0.00 0.00 69 1015.4
20260831040701 82 360 0.0 0.0 0.00 0.00 0.00 69 1015.3
20260831040200 83 360 0.0 0.0 0.00 0.00 0.00 67 1015.3
20260831035700 83 360 0.0 0.0 0.00 0.00 0.00 66 1015.3
20260831035200 84 360 0.0 0.0 0.00 0.00 0.00 64 1015.3
20260831034701 85 360 0.0 0.0 0.00 0.00 0.00 63 1015.3
20260831034201 85 360 0.0 0.0 0.00 0.00 0.00 62 1015.3
20260831033701 85 124 0.0 2.0 0.00 0.00 0.00 61 1015.3
20260831033201 85 360 0.0 0.0 0.00 0.00 0.00 61 1015.2
20260831032701 86 111 0.0 0.0 0.00 0.00 0.00 61 1015.1
20260831032201 86 110 2.0 3.0 0.00 0.00 0.00 60 1015.1
20260831031701 86 360 0.0 0.0 0.00 0.00 0.00 60 1015.1
20260831031201 86 114 1.0 3.0 0.00 0.00 0.00 60 1015.1
20260831030700 86 106 1.0 3.0 0.00 0.00 0.00 59 1015.1
20260831030201 86 114 2.0 4.0 0.00 0.00 0.00 59 1015.0
20260831025700 86 111 1.0 3.0 0.00 0.00 0.00 59 1015.0
20260831025200 86 118 1.0 2.0 0.00 0.00 0.00 59 1014.9
20260831024700 87 109 1.0 2.0 0.00 0.00 0.00 59 1014.8
20260831024200 87 112 0.0 1.0 0.00 0.00 0.00 59 1014.7
20260831023700 87 119 1.0 2.0 0.00 0.00 0.00 59 1014.6
20260831023200 87 122 1.0 2.0 0.00 0.00 0.00 59 1014.5
20260831022701 87 106 2.0 4.0 0.00 0.00 0.00 59 1014.5
20260831022200 87 101 2.0 4.0 0.00 0.00 0.00 59 1014.4
20260831021701 87 118 0.0 2.0 0.00 0.00 0.00 58 1014.3
20260831021200 87 117 0.0 2.0 0.00 0.00 0.00 58 1014.2
20260831020701 87 360 0.0 0.0 0.00 0.00 0.00 58 1014.1
20260831020200 87 106 1.0 3.0 0.00 0.00 0.00 58 1014.0
20260831015701 87 100 0.0 1.0 0.00 0.00 0.00 58 1014.0
20260831015206 87 116 1.0 2.0 0.00 0.00 0.00 57 1013.9
20260831014700 87 119 0.0 2.0 0.00 0.00 0.00 56 1013.8
20260831014200 87 360 0.0 0.0 0.00 0.00 0.00 55 1013.8
20260831013701 87 360 0.0 0.0 0.00 0.00 0.00 55 1013.7
20260831013201 87 89 2.0 4.0 0.00 0.00 0.00 54 1013.7
20260831012701 87 103 0.0 2.0 0.00 0.00 0.00 54 1013.6
20260831012200 87 120 0.0 2.0 0.00 0.00 0.00 54 1013.6
20260831011701 88 134 0.0 2.0 0.00 0.00 0.00 53 1013.5
20260831011201 88 84 1.0 3.0 0.00 0.00 0.00 51 1013.5
20260831010700 89 91 0.0 1.0 0.00 0.00 0.00 52 1013.5
20260831010200 90 127 0.0 1.0 0.00 0.00 0.00 51 1013.4
20260831005702 90 360 0.0 0.0 0.00 0.00 0.00 51 1013.3
20260831005200 91 107 0.0 2.0 0.00 0.00 0.00 47 1013.3
20260831004701 91 360 0.0 0.0 0.00 0.00 0.00 47 1013.3
20260831004201 92 101 0.0 1.0 0.00 0.00 0.00 46 1013.3
20260831003701 93 360 0.0 0.0 0.00 0.00 0.00 45 1013.3
20260831003200 94 360 0.0 0.0 0.00 0.00 0.00 44 1013.3
20260831002701 94 118 2.0 4.0 0.00 0.00 0.00 43 1013.3
20260831002202 95 97 1.0 3.0 0.00 0.00 0.00 42 1013.3
20260831001700 95 112 2.0 4.0 0.00 0.00 0.00 41 1013.4
20260831001200 96 165 1.0 3.0 0.00 0.00 0.00 41 1013.4
20260831000700 96 119 2.0 3.0 0.00 0.00 0.00 40 1013.4
20260831000200 96 126 2.0 3.0 0.00 0.00 0.00 40 1013.4
20260830235700 96 108 1.0 4.0 0.00 0.00 0.00 41 1013.3
20260830235200 97 125 3.0 4.0 0.00 0.00 0.00 40 1013.3
20260830234700 97 118 4.0 7.0 0.00 0.00 0.00 39 1013.3
20260830234201 97 105 2.0 3.0 0.00 0.00 0.00 40 1013.3
20260830233700 97 152 1.0 2.0 0.00 0.00 0.00 40 1013.3
20260830233200 97 126 3.0 4.0 0.00 0.00 0.00 40 1013.3
20260830232701 97 95 4.0 6.0 0.00 0.00 0.00 40 1013.2
20260830232200 97 102 4.0 6.0 0.00 0.00 0.00 41 1013.3
20260830231700 97 77 5.0 6.0 0.00 0.00 0.00 41 1013.3
20260830231200 97 79 7.0 8.0 0.00 0.00 0.00 41 1013.3
20260830230700 98 68 2.0 5.0 0.00 0.00 0.00 40 1013.3
20260830230202 98 129 4.0 6.0 0.00 0.00 0.00 40 1013.4
20260830225701 98 95 4.0 6.0 0.00 0.00 0.00 40 1013.4
20260830225200 98 40 2.0 4.0 0.00 0.00 0.00 40 1013.4
20260830224701 98 162 3.0 6.0 0.00 0.00 0.00 40 1013.4
20260830224200 98 166 6.0 8.0 0.00 0.00 0.00 40 1013.4
20260830223700 98 127 4.0 7.0 0.00 0.00 0.00 40 1013.3
20260830223200 98 165 6.0 8.0 0.00 0.00 0.00 40 1013.3
20260830222700 98 160 4.0 6.0 0.00 0.00 0.00 40 1013.3
20260830222200 98 142 4.0 6.0 0.00 0.00 0.00 41 1013.3
20260830221702 98 124 4.0 5.0 0.00 0.00 0.00 41 1013.2
20260830221200 98 233 3.0 4.0 0.00 0.00 0.00 40 1013.3
20260830220700 98 318 2.0 4.0 0.00 0.00 0.00 41 1013.3
20260830220200 98 305 3.0 4.0 0.00 0.00 0.00 41 1013.3
20260830215701 97 138 1.0 3.0 0.00 0.00 0.00 41 1013.3
20260830215201 97 196 2.0 4.0 0.00 0.00 0.00 41 1013.4
20260830214700 97 113 4.0 7.0 0.00 0.00 0.00 42 1013.5
20260830214201 97 177 6.0 8.0 0.00 0.00 0.00 42 1013.4
20260830213701 98 121 4.0 6.0 0.00 0.00 0.00 42 1013.5
20260830213200 98 126 5.0 8.0 0.00 0.00 0.00 42 1013.5
20260830212700 98 127 2.0 4.0 0.00 0.00 0.00 43 1013.5
20260830212200 98 174 3.0 4.0 0.00 0.00 0.00 42 1013.6
20260830211700 99 174 3.0 7.0 0.00 0.00 0.00 42 1013.7
20260830211200 98 345 0.0 3.0 0.00 0.00 0.00 42 1013.9
20260830210700 98 177 4.0 6.0 0.00 0.00 0.00 41 1014.0
20260830210200 98 176 2.0 4.0 0.00 0.00 0.00 42 1014.0
20260830205700 98 239 3.0 6.0 0.00 0.00 0.00 41 1014.1
20260830205200 97 97 5.0 9.0 0.00 0.00 0.00 44 1014.1
20260830204701 98 118 4.0 6.0 0.00 0.00 0.00 43 1014.2
20260830204200 97 291 2.0 5.0 0.00 0.00 0.00 42 1014.3
20260830203700 97 165 8.0 11.0 0.00 0.00 0.00 43 1014.4
20260830203200 98 126 3.0 8.0 0.00 0.00 0.00 44 1014.4
20260830202701 97 90 4.0 7.0 0.00 0.00 0.00 43 1014.4
20260830202201 97 54 3.0 5.0 0.00 0.00 0.00 44 1014.4
20260830201701 96 337 1.0 6.0 0.00 0.00 0.00 43 1014.5
20260830201200 97 287 3.0 4.0 0.00 0.00 0.00 44 1014.7
20260830200701 97 185 4.0 8.0 0.00 0.00 0.00 45 1014.7
20260830200200 97 233 2.0 4.0 0.00 0.00 0.00 45 1014.8
20260830195700 97 198 5.0 7.0 0.00 0.00 0.00 45 1014.8
20260830195200 96 192 3.0 5.0 0.00 0.00 0.00 45 1015.0
20260830194701 96 21 1.0 2.0 0.00 0.00 0.00 46 1015.1
20260830194201 96 243 5.0 7.0 0.00 0.00 0.00 46 1015.1
20260830193701 96 246 3.0 5.0 0.00 0.00 0.00 46 1015.2
20260830193200 96 251 5.0 6.0 0.00 0.00 0.00 45 1015.2
20260830192700 96 226 4.0 6.0 0.00 0.00 0.00 46 1015.3
20260830192200 96 229 4.0 6.0 0.00 0.00 0.00 47 1015.4
20260830191701 95 266 4.0 5.0 0.00 0.00 0.00 46 1015.5
20260830191200 94 229 4.0 6.0 0.00 0.00 0.00 47 1015.6
20260830190700 94 284 2.0 4.0 0.00 0.00 0.00 49 1015.8
20260830190201 93 329 2.0 3.0 0.00 0.00 0.00 52 1015.9
20260830185701 93 277 1.0 3.0 0.00 0.00 0.00 52 1016.1
20260830185200 93 277 1.0 3.0 0.00 0.00 0.00 52 1016.1
20260830184700 93 276 2.0 3.0 0.00 0.00 0.00 51 1016.1
20260830184200 93 360 0.0 0.0 0.00 0.00 0.00 51 1016.2
20260830183700 93 15 2.0 4.0 0.00 0.00 0.00 51 1016.2
20260830183200 93 298 3.0 4.0 0.00 0.00 0.00 51 1016.2
20260830182700 93 280 0.0 2.0 0.00 0.00 0.00 50 1016.2
20260830182200 93 240 3.0 4.0 0.00 0.00 0.00 51 1016.3
20260830181700 94 238 3.0 5.0 0.00 0.00 0.00 51 1016.4
20260830181200 94 205 3.0 5.0 0.00 0.00 0.00 49 1016.4
20260830180700 94 322 2.0 4.0 0.00 0.00 0.00 49 1016.3
20260830180201 95 75 5.0 7.0 0.00 0.00 0.00 49 1016.4
20260830175701 94 187 5.0 9.0 0.00 0.00 0.00 50 1016.4
20260830175201 94 101 4.0 5.0 0.00 0.00 0.00 52 1016.5
20260830174700 94 182 5.0 8.0 0.00 0.00 0.00 52 1016.6
20260830174200 94 284 1.0 3.0 0.00 0.00 0.00 52 1016.7
20260830173701 93 216 5.0 9.0 0.00 0.00 0.00 52 1016.8
20260830173200 93 241 3.0 4.0 0.00 0.00 0.00 52 1016.9
20260830172700 93 193 4.0 6.0 0.00 0.00 0.00 53 1017.0
20260830172200 93 260 1.0 6.0 0.00 0.00 0.00 55 1017.0
20260830171701 93 215 6.0 8.0 0.00 0.00 0.00 54 1017.0
20260830171201 93 191 3.0 4.0 0.00 0.00 0.00 54 1017.0
20260830170700 92 241 3.0 4.0 0.00 0.00 0.00 54 1017.1
20260830170200 92 208 1.0 3.0 0.00 0.00 0.00 56 1017.1
20260830165701 92 133 4.0 6.0 0.00 0.00 0.00 55 1017.1
20260830165200 92 34 2.0 3.0 0.00 0.00 0.00 55 1017.2
20260830164700 91 157 6.0 7.0 0.00 0.00 0.00 56 1017.3
20260830164200 91 158 2.0 4.0 0.00 0.00 0.00 56 1017.3
20260830163700 91 156 6.0 9.0 0.00 0.00 0.00 56 1017.3
20260830163201 91 104 3.0 6.0 0.00 0.00 0.00 56 1017.3
20260830162701 91 81 3.0 4.0 0.00 0.00 0.00 57 1017.4
20260830162201 90 179 4.0 7.0 0.00 0.00 0.00 58 1017.4
20260830161701 90 172 6.0 8.0 0.00 0.00 0.00 57 1017.5
20260830161200 90 184 5.0 7.0 0.00 0.00 0.00 57 1017.5
20260830160700 90 168 8.0 10.0 0.00 0.00 0.00 57 1017.5
20260830160201 90 215 5.0 9.0 0.00 0.00 0.00 58 1017.5
20260830155700 90 166 4.0 9.0 0.00 0.00 0.00 58 1017.4
20260830155203 90 171 5.0 7.0 0.00 0.00 0.00 57 1017.4
20260830154700 90 261 0.0 1.0 0.00 0.00 0.00 60 1017.4
20260830154200 89 223 0.0 3.0 0.00 0.00 0.00 60 1017.5
20260830153700 89 181 2.0 4.0 0.00 0.00 0.00 63 1017.5
20260830153203 89 225 4.0 6.0 0.00 0.00 0.00 62 1017.5
20260830152700 89 351 2.0 4.0 0.00 0.00 0.00 63 1017.5
20260830152201 88 154 2.0 3.0 0.00 0.00 0.00 64 1017.5
20260830151700 88 234 2.0 4.0 0.00 0.00 0.00 65 1017.6
20260830151202 88 265 3.0 4.0 0.00 0.00 0.00 65 1017.5
20260830150700 87 111 1.0 2.0 0.00 0.00 0.00 66 1017.5
20260830150201 87 238 2.0 5.0 0.00 0.00 0.00 66 1017.6
20260830145702 86 268 4.0 6.0 0.00 0.00 0.00 67 1017.6
20260830145200 86 255 4.0 5.0 0.00 0.00 0.00 69 1017.6
20260830144700 85 312 2.0 4.0 0.00 0.00 0.00 70 1017.5
20260830144200 85 219 2.0 2.0 0.00 0.00 0.00 73 1017.5
20260830143701 84 221 3.0 4.0 0.00 0.00 0.00 74 1017.5
20260830143200 84 250 5.0 7.0 0.00 0.00 0.00 74 1017.5
20260830142700 84 246 2.0 3.0 0.00 0.00 0.00 77 1017.6
20260830142202 83 223 3.0 4.0 0.00 0.00 0.00 77 1017.6
20260830141700 83 230 2.0 3.0 0.00 0.00 0.00 79 1017.6
20260830141201 82 219 2.0 3.0 0.00 0.00 0.00 80 1017.6
20260830140700 82 266 2.0 4.0 0.00 0.00 0.00 81 1017.6
20260830140201 82 252 4.0 6.0 0.00 0.00 0.00 81 1017.6
20260830135701 81 219 5.0 7.0 0.00 0.00 0.00 82 1017.6
20260830135200 81 220 3.0 4.0 0.00 0.00 0.00 82 1017.6
20260830134700 81 223 1.0 2.0 0.00 0.00 0.00 82 1017.6
20260830134201 81 186 3.0 5.0 0.00 0.00 0.00 82 1017.7
20260830133700 81 205 1.0 2.0 0.00 0.00 0.00 81 1017.6
20260830133201 81 360 0.0 0.0 0.00 0.00 0.00 82 1017.6
20260830132700 80 153 0.0 2.0 0.00 0.00 0.00 84 1017.6
20260830132200 79 160 0.0 2.0 0.00 0.00 0.00 85 1017.5
20260830131700 78 165 1.0 3.0 0.00 0.00 0.00 86 1017.4
20260830131201 77 360 0.0 0.0 0.00 0.00 0.00 88 1017.3
20260830130700 77 243 1.0 2.0 0.00 0.00 0.00 88 1017.2
20260830130201 76 205 0.0 1.0 0.00 0.00 0.00 89 1017.2
20260830125700 76 208 0.0 0.0 0.00 0.00 0.00 90 1017.2
20260830125202 75 162 0.0 0.0 0.00 0.00 0.00 90 1017.2
20260830124700 75 137 1.0 1.0 0.00 0.00 0.00 91 1017.1
20260830124201 75 360 0.0 0.0 0.00 0.00 0.00 91 1017.1
20260830123701 74 131 1.0 1.0 0.00 0.00 0.00 92 1017.0
20260830123200 74 113 0.0 0.0 0.00 0.00 0.00 92 1017.0
20260830122700 73 360 0.0 0.0 0.00 0.00 0.00 92 1016.9
20260830122200 73 360 0.0 0.0 0.00 0.00 0.00 92 1016.8
20260830121701 73 360 0.0 0.0 0.00 0.00 0.00 92 1016.7
20260830121200 73 127 1.0 2.0 0.00 0.00 0.00 92 1016.7
20260830120700 73 112 1.0 1.0 0.00 0.00 0.00 92 1016.7
20260830120200 73 110 0.0 1.0 0.00 0.00 0.00 92 1016.6
20260830115700 73 127 0.0 0.0 0.00 0.00 0.00 91 1016.6
20260830115200 73 360 0.0 0.0 0.00 0.00 0.00 91 1016.6
20260830114701 73 109 1.0 2.0 0.00 0.00 0.00 91 1016.5
20260830114200 73 157 1.0 2.0 0.00 0.00 0.00 91 1016.5
20260830113700 73 87 0.0 0.0 0.00 0.00 0.00 91 1016.4
20260830113200 73 360 0.0 0.0 0.00 0.00 0.00 91 1016.2
20260830112700 73 52 1.0 2.0 0.00 0.00 0.00 91 1016.2
20260830112201 73 109 0.0 1.0 0.00 0.00 0.00 91 1016.2
20260830111700 73 360 0.0 0.0 0.00 0.00 0.00 90 1016.2
20260830111200 74 153 2.0 2.0 0.00 0.00 0.00 90 1016.2
20260830110701 74 183 0.0 1.0 0.00 0.00 0.00 90 1016.2
20260830110200 74 360 0.0 0.0 0.00 0.00 0.00 90 1016.1
20260830105701 74 360 0.0 0.0 0.00 0.00 0.00 90 1016.1
20260830105200 74 360 0.0 0.0 0.00 0.00 0.00 91 1016.1
20260830104700 74 105 0.0 0.0 0.00 0.00 0.00 90 1016.0
20260830104201 74 85 2.0 2.0 0.00 0.00 0.00 91 1016.0
20260830103700 74 83 1.0 2.0 0.00 0.00 0.00 90 1016.0
20260830103200 74 111 0.0 0.0 0.00 0.00 0.00 90 1015.9
20260830102700 74 360 0.0 0.0 0.00 0.00 0.00 90 1015.9
20260830102200 74 360 0.0 0.0 0.00 0.00 0.00 89 1015.9
20260830101700 74 360 0.0 0.0 0.00 0.00 0.00 89 1015.9
20260830101200 74 360 0.0 0.0 0.00 0.00 0.00 89 1015.9
20260830100700 74 360 0.0 0.0 0.00 0.00 0.00 88 1015.9
20260830100200 75 219 1.0 1.0 0.00 0.00 0.00 88 1015.9
20260830095700 75 214 1.0 1.0 0.00 0.00 0.00 87 1015.9
20260830095201 76 360 0.0 0.0 0.00 0.00 0.00 86 1015.9
20260830094701 76 173 0.0 0.0 0.00 0.00 0.00 85 1016.0
20260830094200 76 360 0.0 0.0 0.00 0.00 0.00 85 1016.0
20260830093701 76 42 2.0 2.0 0.00 0.00 0.00 85 1016.0
20260830093200 75 22 4.0 4.0 0.00 0.00 0.00 87 1015.9
20260830092700 75 8 1.0 2.0 0.00 0.00 0.00 87 1015.9
20260830092200 76 360 0.0 0.0 0.00 0.00 0.00 87 1015.8
20260830091701 76 167 2.0 2.0 0.00 0.00 0.00 86 1015.8
20260830091200 75 125 1.0 2.0 0.00 0.00 0.00 87 1015.7
20260830090700 75 354 0.0 1.0 0.00 0.00 0.00 87 1015.8
20260830090200 75 360 0.0 0.0 0.00 0.00 0.00 87 1015.8
20260830085701 75 360 0.0 0.0 0.00 0.00 0.00 87 1015.8
20260830085201 76 360 0.0 0.0 0.00 0.00 0.00 86 1015.8